FW2418 Weather Reports


Display with metric or nautical units.
time (UTC)temp
F
wind
direction
speed
MPH
gust
MPH
rain 1hr
in
rain 24hr
in
rain mn
in
humidity
%
barometer
mb
20260504172342 80 100 3.0 8.0 0.00 0.00 0.00 50 1014.7
20260504171341 80 36 2.0 8.0 0.00 0.00 0.00 53 1014.6
20260504170339 81 54 2.0 8.0 0.00 0.00 0.00 51 1014.7
20260504160334 79 9 2.0 12.0 0.00 0.00 0.00 50 1015.3
20260504150154 76 68 1.0 11.0 0.00 0.00 0.00 57 1015.7
20260504141119 76 23 2.0 8.0 0.00 0.00 0.00 57 1015.3
20260504140118 76 28 3.0 10.0 0.00 0.00 0.00 56 1015.3
20260504120145 64 36 1.0 4.0 0.00 0.00 0.00 88 1014.6
20260504081643 59 16 0.0 0.0 0.00 0.00 0.00 94 1013.9
20260504080642 59 16 0.0 0.0 0.00 0.00 0.00 93 1013.9
20260504050420 65 39 0.0 1.0 0.00 0.01 0.00 84 1015.0
20260504045420 65 40 0.0 1.0 0.00 0.01 0.00 84 1015.3
20260504044419 65 40 0.0 1.0 0.00 0.01 0.00 84 1015.3
20260504043417 65 39 0.0 1.0 0.00 0.01 0.00 84 1015.3
20260504042417 66 18 0.0 1.0 0.00 0.01 0.00 84 1015.3
20260504041416 66 70 1.0 1.0 0.00 0.01 0.00 83 1015.3
20260504040414 65 71 0.0 1.0 0.00 0.01 0.00 83 1015.3
20260504035414 65 37 0.0 1.0 0.00 0.01 0.01 83 1015.3
20260504034413 66 37 0.0 1.0 0.00 0.02 0.01 83 1015.3
20260504033412 65 37 0.0 0.0 0.00 0.03 0.01 83 1015.3
20260504032411 66 37 0.0 1.0 0.00 0.04 0.01 83 1015.3
20260504031410 66 37 0.0 1.0 0.00 0.05 0.01 82 1015.3
20260504030409 66 36 1.0 1.0 0.00 0.05 0.01 82 1015.3
20260504025408 66 50 0.0 1.0 0.00 0.06 0.01 81 1015.3
20260504024408 66 32 1.0 3.0 0.00 0.06 0.01 80 1015.3
20260504023407 66 28 1.0 4.0 0.00 0.06 0.01 80 1015.3
20260504022406 67 68 0.0 3.0 0.00 0.06 0.01 79 1015.3
20260504021405 67 356 1.0 3.0 0.00 0.07 0.01 79 1015.3
20260504020302 67 16 2.0 4.0 0.00 0.07 0.01 78 1015.0
20260504015301 67 54 1.0 4.0 0.00 0.07 0.01 78 1015.0
20260504014259 67 13 1.0 5.0 0.00 0.07 0.01 77 1015.0
20260504013258 67 39 1.0 4.0 0.00 0.07 0.01 77 1015.0
20260504012257 68 13 1.0 4.0 0.00 0.07 0.01 76 1015.0
20260504011256 68 20 1.0 4.0 0.00 0.07 0.01 75 1014.6
20260504010256 68 19 1.0 4.0 0.00 0.07 0.01 75 1014.6
20260504005255 68 20 2.0 5.0 0.00 0.07 0.01 75 1014.6
20260504004254 69 22 2.0 5.0 0.00 0.07 0.01 74 1015.0
20260504003253 69 56 1.0 4.0 0.00 0.07 0.01 73 1014.6
20260504002221 70 23 1.0 4.0 0.00 0.07 0.01 72 1014.6
20260504001149 70 36 1.0 5.0 0.00 0.07 0.01 72 1014.3
20260504000117 70 19 1.0 5.0 0.00 0.07 0.01 71 1014.3
20260503235116 71 12 1.0 5.0 0.00 0.07 0.01 70 1014.3
20260503234115 71 22 2.0 7.0 0.00 0.07 0.01 69 1014.3
20260503233114 71 75 2.0 8.0 0.00 0.07 0.01 68 1014.3
20260503231940 72 17 2.0 7.0 0.00 0.07 0.01 68 1014.3
20260503230908 72 69 2.0 7.0 0.00 0.07 0.01 68 1014.3
20260503225907 73 31 3.0 8.0 0.00 0.07 0.01 66 1014.3
20260503224906 73 23 3.0 8.0 0.00 0.07 0.01 66 1014.3
20260503223905 73 54 2.0 7.0 0.00 0.07 0.01 66 1014.3
20260503222904 73 24 3.0 7.0 0.00 0.07 0.01 65 1014.3
20260503221904 74 75 1.0 8.0 0.00 0.07 0.01 64 1014.3
20260503220903 74 47 1.0 7.0 0.00 0.07 0.01 63 1014.0
20260503215902 75 47 4.0 8.0 0.00 0.07 0.01 62 1014.0
20260503214901 75 60 2.0 7.0 0.00 0.07 0.01 60 1014.0
20260503213829 75 82 2.0 6.0 0.00 0.07 0.01 61 1013.6
20260503212828 76 20 3.0 6.0 0.00 0.07 0.01 58 1014.0
20260503211828 76 48 2.0 7.0 0.00 0.07 0.01 59 1014.0
20260503210827 76 76 3.0 8.0 0.00 0.07 0.01 58 1014.0
20260503205826 76 53 3.0 8.0 0.00 0.07 0.01 57 1014.0
20260503204825 76 53 3.0 9.0 0.00 0.07 0.01 57 1014.0
20260503203824 76 56 2.0 9.0 0.00 0.08 0.01 58 1014.0
20260503202823 75 45 2.0 9.0 0.00 0.10 0.01 58 1014.0
20260503201823 76 5 3.0 8.0 0.00 0.12 0.01 57 1014.3
20260503200821 76 49 2.0 9.0 0.00 0.12 0.01 58 1014.0
20260503195820 76 11 4.0 8.0 0.00 0.12 0.01 58 1014.3
20260503194820 77 4 3.0 7.0 0.00 0.13 0.01 58 1014.3
20260503193818 77 27 2.0 8.0 0.00 0.13 0.01 58 1014.6
20260503192817 77 41 3.0 9.0 0.00 0.13 0.01 58 1014.6
20260503191816 77 17 3.0 9.0 0.00 0.15 0.01 57 1015.0
20260503190815 78 86 2.0 7.0 0.00 0.19 0.01 57 1015.3
20260503185814 77 48 4.0 8.0 0.00 0.26 0.01 58 1015.0
20260503184813 76 359 2.0 10.0 0.00 0.26 0.01 60 1015.3
20260503183812 76 7 3.0 11.0 0.00 0.26 0.01 60 1015.3
20260503182812 77 33 3.0 7.0 0.00 0.26 0.01 58 1015.3
20260503181810 77 59 2.0 7.0 0.00 0.26 0.01 57 1015.3
20260503180809 77 27 3.0 9.0 0.00 0.26 0.01 59 1015.7
20260503175808 78 40 4.0 10.0 0.00 0.26 0.01 57 1015.7
20260503174808 76 22 3.0 10.0 0.00 0.26 0.01 59 1015.7
20260503173735 76 16 4.0 9.0 0.00 0.26 0.01 59 1015.7